| time (UTC) | temp F | wind direction | speed MPH | gust MPH | rain 1hr in | rain 24hr in | rain mn in | humidity % | barometer mb |
| 20260904194507 | 88 | 325 | 1.0 | 2.0 | 0.00 | 0.00 | 0.00 | 19 | 1017.6 |
| 20260904194006 | 88 | 333 | 2.0 | 3.0 | 0.00 | 0.00 | 0.00 | 19 | 1017.6 |
| 20260904193506 | 88 | 322 | 1.0 | 3.0 | 0.00 | 0.00 | 0.00 | 18 | 1017.5 |
| 20260904193007 | 88 | 295 | 2.0 | 3.0 | 0.00 | 0.00 | 0.00 | 18 | 1017.5 |
| 20260904192506 | 88 | 291 | 2.0 | 3.0 | 0.00 | 0.00 | 0.00 | 18 | 1017.6 |
| 20260904192007 | 87 | 291 | 1.0 | 3.0 | 0.00 | 0.00 | 0.00 | 18 | 1017.5 |
| 20260904191507 | 87 | 312 | 1.0 | 2.0 | 0.00 | 0.00 | 0.00 | 18 | 1017.4 |
| 20260904191006 | 88 | 312 | 1.0 | 3.0 | 0.00 | 0.00 | 0.00 | 18 | 1017.3 |
| 20260904190507 | 88 | 292 | 1.0 | 3.0 | 0.00 | 0.00 | 0.00 | 18 | 1017.1 |
| 20260904190008 | 88 | 295 | 2.0 | 3.0 | 0.00 | 0.00 | 0.00 | 18 | 1017.1 |
| 20260904185510 | 89 | 306 | 2.0 | 3.0 | 0.00 | 0.00 | 0.00 | 18 | 1017.1 |
| 20260904185007 | 91 | 301 | 2.0 | 3.0 | 0.00 | 0.00 | 0.00 | 17 | 1017.1 |
| 20260904184506 | 92 | 298 | 2.0 | 3.0 | 0.00 | 0.00 | 0.00 | 17 | 1017.1 |
| 20260904183506 | 93 | 255 | 0.0 | 0.0 | 0.00 | 0.00 | 0.00 | 17 | 1017.2 |
| 20260904183006 | 94 | 255 | 0.0 | 0.0 | 0.00 | 0.00 | 0.00 | 17 | 1017.1 |
| 20260904182507 | 95 | 255 | 1.0 | 2.0 | 0.00 | 0.00 | 0.00 | 17 | 1017.2 |
| 20260904182006 | 95 | 233 | 1.0 | 2.0 | 0.00 | 0.00 | 0.00 | 17 | 1017.3 |
| 20260904181006 | 96 | 191 | 2.0 | 3.0 | 0.00 | 0.00 | 0.00 | 16 | 1017.2 |
| 20260904180510 | 96 | 193 | 2.0 | 3.0 | 0.00 | 0.00 | 0.00 | 16 | 1017.1 |
| 20260904180006 | 96 | 195 | 3.0 | 5.0 | 0.00 | 0.00 | 0.00 | 16 | 1017.1 |
| 20260904175506 | 96 | 208 | 2.0 | 3.0 | 0.00 | 0.00 | 0.00 | 16 | 1017.1 |
| 20260904175006 | 97 | 202 | 1.0 | 2.0 | 0.00 | 0.00 | 0.00 | 16 | 1017.1 |
| 20260904174506 | 97 | 232 | 1.0 | 3.0 | 0.00 | 0.00 | 0.00 | 16 | 1017.1 |
| 20260904174007 | 97 | 233 | 1.0 | 3.0 | 0.00 | 0.00 | 0.00 | 16 | 1017.2 |
| 20260904173506 | 97 | 221 | 2.0 | 3.0 | 0.00 | 0.00 | 0.00 | 16 | 1017.2 |
| 20260904173011 | 97 | 200 | 1.0 | 3.0 | 0.00 | 0.00 | 0.00 | 16 | 1017.3 |
| 20260904172506 | 97 | 225 | 2.0 | 3.0 | 0.00 | 0.00 | 0.00 | 16 | 1017.2 |
| 20260904172006 | 97 | 220 | 2.0 | 3.0 | 0.00 | 0.00 | 0.00 | 16 | 1017.3 |
| 20260904171506 | 97 | 234 | 2.0 | 5.0 | 0.00 | 0.00 | 0.00 | 15 | 1017.2 |
| 20260904170506 | 97 | 209 | 0.0 | 3.0 | 0.00 | 0.00 | 0.00 | 15 | 1017.1 |
| 20260904170006 | 97 | 198 | 2.0 | 5.0 | 0.00 | 0.00 | 0.00 | 15 | 1017.1 |
| 20260904164506 | 98 | 200 | 3.0 | 7.0 | 0.00 | 0.00 | 0.00 | 15 | 1017.1 |
| 20260904164006 | 98 | 180 | 3.0 | 5.0 | 0.00 | 0.00 | 0.00 | 15 | 1017.1 |
| 20260904163505 | 98 | 216 | 3.0 | 6.0 | 0.00 | 0.00 | 0.00 | 15 | 1017.1 |
| 20260904163006 | 98 | 221 | 4.0 | 7.0 | 0.00 | 0.00 | 0.00 | 15 | 1017.1 |
| 20260904162505 | 98 | 228 | 5.0 | 7.0 | 0.00 | 0.00 | 0.00 | 15 | 1017.1 |
| 20260904162005 | 98 | 191 | 5.0 | 7.0 | 0.00 | 0.00 | 0.00 | 15 | 1017.2 |
| 20260904161506 | 98 | 193 | 5.0 | 9.0 | 0.00 | 0.00 | 0.00 | 15 | 1017.3 |
| 20260904161006 | 98 | 183 | 3.0 | 7.0 | 0.00 | 0.00 | 0.00 | 15 | 1017.2 |
| 20260904160506 | 99 | 192 | 3.0 | 7.0 | 0.00 | 0.00 | 0.00 | 15 | 1017.2 |
| 20260904160006 | 99 | 217 | 5.0 | 9.0 | 0.00 | 0.00 | 0.00 | 15 | 1017.3 |
| 20260904155505 | 99 | 220 | 2.0 | 7.0 | 0.00 | 0.00 | 0.00 | 14 | 1017.3 |
| 20260904155005 | 99 | 218 | 3.0 | 8.0 | 0.00 | 0.00 | 0.00 | 15 | 1017.4 |
| 20260904154506 | 99 | 172 | 5.0 | 8.0 | 0.00 | 0.00 | 0.00 | 15 | 1017.3 |
| 20260904154006 | 98 | 190 | 3.0 | 8.0 | 0.00 | 0.00 | 0.00 | 15 | 1017.3 |
| 20260904153006 | 98 | 193 | 4.0 | 7.0 | 0.00 | 0.00 | 0.00 | 15 | 1017.4 |
| 20260904152506 | 98 | 188 | 3.0 | 12.0 | 0.00 | 0.00 | 0.00 | 15 | 1017.4 |
| 20260904151506 | 99 | 232 | 5.0 | 8.0 | 0.00 | 0.00 | 0.00 | 14 | 1017.5 |
| 20260904151006 | 99 | 215 | 2.0 | 7.0 | 0.00 | 0.00 | 0.00 | 15 | 1017.5 |
| 20260904150506 | 99 | 224 | 5.0 | 10.0 | 0.00 | 0.00 | 0.00 | 14 | 1017.7 |
| 20260904150006 | 99 | 207 | 5.0 | 7.0 | 0.00 | 0.00 | 0.00 | 14 | 1017.6 |
| 20260904145506 | 98 | 200 | 4.0 | 10.0 | 0.00 | 0.00 | 0.00 | 14 | 1017.6 |
| 20260904145005 | 98 | 205 | 7.0 | 10.0 | 0.00 | 0.00 | 0.00 | 14 | 1017.7 |
| 20260904144505 | 98 | 217 | 6.0 | 13.0 | 0.00 | 0.00 | 0.00 | 14 | 1017.8 |
| 20260904144006 | 98 | 218 | 6.0 | 12.0 | 0.00 | 0.00 | 0.00 | 14 | 1017.7 |
| 20260904143506 | 98 | 209 | 5.0 | 12.0 | 0.00 | 0.00 | 0.00 | 14 | 1017.7 |
| 20260904143006 | 98 | 229 | 6.0 | 12.0 | 0.00 | 0.00 | 0.00 | 14 | 1017.7 |
| 20260904142505 | 99 | 212 | 3.0 | 12.0 | 0.00 | 0.00 | 0.00 | 13 | 1018.0 |
| 20260904142005 | 99 | 220 | 4.0 | 7.0 | 0.00 | 0.00 | 0.00 | 13 | 1018.1 |
| 20260904141506 | 99 | 185 | 3.0 | 9.0 | 0.00 | 0.00 | 0.00 | 14 | 1018.1 |
| 20260904141006 | 99 | 213 | 5.0 | 9.0 | 0.00 | 0.00 | 0.00 | 14 | 1018.1 |
| 20260904140506 | 99 | 206 | 4.0 | 7.0 | 0.00 | 0.00 | 0.00 | 14 | 1018.2 |
| 20260904140006 | 98 | 178 | 3.0 | 12.0 | 0.00 | 0.00 | 0.00 | 14 | 1018.4 |
| 20260904135505 | 98 | 279 | 0.0 | 3.0 | 0.00 | 0.00 | 0.00 | 14 | 1018.5 |
| 20260904135006 | 98 | 253 | 5.0 | 7.0 | 0.00 | 0.00 | 0.00 | 14 | 1018.6 |
| 20260904134005 | 98 | 242 | 6.0 | 12.0 | 0.00 | 0.00 | 0.00 | 15 | 1018.7 |
| 20260904133505 | 97 | 237 | 3.0 | 9.0 | 0.00 | 0.00 | 0.00 | 15 | 1018.7 |
| 20260904133006 | 97 | 200 | 4.0 | 8.0 | 0.00 | 0.00 | 0.00 | 15 | 1018.7 |
| 20260904132505 | 97 | 225 | 3.0 | 8.0 | 0.00 | 0.00 | 0.00 | 15 | 1018.7 |
| 20260904132005 | 97 | 220 | 4.0 | 9.0 | 0.00 | 0.00 | 0.00 | 15 | 1018.9 |
| 20260904131505 | 97 | 248 | 5.0 | 10.0 | 0.00 | 0.00 | 0.00 | 15 | 1019.0 |
| 20260904131005 | 97 | 197 | 6.0 | 12.0 | 0.00 | 0.00 | 0.00 | 15 | 1019.0 |
| 20260904130505 | 97 | 208 | 6.0 | 14.0 | 0.00 | 0.00 | 0.00 | 14 | 1019.1 |
| 20260904130006 | 96 | 236 | 3.0 | 8.0 | 0.00 | 0.00 | 0.00 | 15 | 1019.1 |
| 20260904125505 | 96 | 213 | 6.0 | 12.0 | 0.00 | 0.00 | 0.00 | 14 | 1019.3 |
| 20260904125005 | 96 | 245 | 5.0 | 9.0 | 0.00 | 0.00 | 0.00 | 14 | 1019.3 |
| 20260904124506 | 96 | 198 | 3.0 | 7.0 | 0.00 | 0.00 | 0.00 | 15 | 1019.4 |
| 20260904124006 | 96 | 209 | 2.0 | 8.0 | 0.00 | 0.00 | 0.00 | 15 | 1019.4 |
| 20260904123006 | 96 | 153 | 3.0 | 5.0 | 0.00 | 0.00 | 0.00 | 14 | 1019.4 |
| 20260904122506 | 95 | 242 | 1.0 | 6.0 | 0.00 | 0.00 | 0.00 | 14 | 1019.4 |
| 20260904121506 | 95 | 235 | 1.0 | 6.0 | 0.00 | 0.00 | 0.00 | 15 | 1019.6 |
| 20260904120505 | 94 | 230 | 4.0 | 7.0 | 0.00 | 0.00 | 0.00 | 16 | 1019.7 |
| 20260904115506 | 94 | 189 | 4.0 | 7.0 | 0.00 | 0.00 | 0.00 | 16 | 1019.7 |
| 20260904115005 | 93 | 186 | 3.0 | 8.0 | 0.00 | 0.00 | 0.00 | 16 | 1019.8 |
| 20260904114505 | 93 | 155 | 3.0 | 7.0 | 0.00 | 0.00 | 0.00 | 16 | 1019.9 |
| 20260904114005 | 93 | 193 | 3.0 | 6.0 | 0.00 | 0.00 | 0.00 | 16 | 1019.9 |
| 20260904113005 | 92 | 193 | 4.0 | 6.0 | 0.00 | 0.00 | 0.00 | 17 | 1020.1 |
| 20260904112506 | 92 | 220 | 4.0 | 6.0 | 0.00 | 0.00 | 0.00 | 16 | 1020.1 |
| 20260904112005 | 92 | 221 | 3.0 | 5.0 | 0.00 | 0.00 | 0.00 | 16 | 1020.2 |
| 20260904111506 | 91 | 187 | 4.0 | 7.0 | 0.00 | 0.00 | 0.00 | 17 | 1020.1 |
| 20260904111005 | 91 | 190 | 3.0 | 5.0 | 0.00 | 0.00 | 0.00 | 17 | 1020.1 |
| 20260904110506 | 91 | 150 | 3.0 | 8.0 | 0.00 | 0.00 | 0.00 | 17 | 1020.3 |
| 20260904110006 | 91 | 136 | 3.0 | 6.0 | 0.00 | 0.00 | 0.00 | 18 | 1020.4 |
| 20260904105505 | 90 | 154 | 2.0 | 6.0 | 0.00 | 0.00 | 0.00 | 18 | 1020.6 |
| 20260904105005 | 90 | 157 | 3.0 | 6.0 | 0.00 | 0.00 | 0.00 | 18 | 1020.7 |
| 20260904104005 | 89 | 162 | 2.0 | 3.0 | 0.00 | 0.00 | 0.00 | 18 | 1020.7 |
| 20260904103505 | 89 | 214 | 3.0 | 6.0 | 0.00 | 0.00 | 0.00 | 19 | 1020.8 |
| 20260904103006 | 89 | 196 | 2.0 | 3.0 | 0.00 | 0.00 | 0.00 | 19 | 1020.8 |
| 20260904102505 | 88 | 242 | 1.0 | 3.0 | 0.00 | 0.00 | 0.00 | 19 | 1020.8 |